Flag for U.S.A. Weather past 2 weeks in Olympia, Washington, U.S.A.

Now
54 °F

Partly sunny.


Feels Like: 52 °F
Forecast: 48 / 63 °F
Wind: 7 mph from South

Location: Olympia Airport

Current Time: Mar 30, 2015 at 11:24:31 AM

Latest Report: Mar 30, 2015 at 10:54 AM


Visibility: 10 mi

Pressure: 30.08 "Hg

Humidity: 80%

Dew point: 48 °F

Location of OlympiaLocation

Historic Weather in Olympia — Graph

°F

Olympia temperature yesterday

Maximum temperature yesterday: 61 °F (at 2:54 PM)
Minimum temperature yesterday: 43 °F (at 5:54 AM)
Average temperature yesterday: 53 °F

Past Weeks' High & Low Weather Summary

 TemperatureHumidityPressure
High72 °F (Mar 26, 5:54 PM)100% (Mar 16, 4:54 AM)30.35 "Hg (Mar 16, 4:54 AM)
Low34 °F (Mar 17, 3:54 AM)41% (Mar 18, 5:54 PM)29.60 "Hg (Mar 15, 3:54 PM)
Average49 °F83%30.11 "Hg
* Reported Mar 15 9:54 AM — Mar 30 9:54 AM, Olympia, Weather by CustomWeather, © 2015

Note: Actual official high and low records may vary slightly from our data, if they occured in-between our weather recording intervals... More about our weather records

Advertising

Olympia weather history for previous 24 hours

 ConditionsComfort  
Time TempWeatherWind HumidityBarometerVisibility
9:54 AM
Mon, Mar 30
53 °FMostly cloudy.7 mph83%30.10 "Hg10 mi
8:54 AM50 °FPartly sunny.8 mph89%30.10 "Hg9 mi
7:54 AM48 °FPassing clouds.9 mph93%30.10 "Hg9 mi
6:54 AM49 °FPassing clouds.7 mph90%30.10 "Hg10 mi
5:54 AM49 °FPassing clouds.3 mph93%30.11 "Hg8 mi
4:54 AM47 °FClear.6 mph93%30.11 "Hg9 mi
3:54 AM51 °FMostly cloudy.No wind92%30.12 "Hg9 mi
2:54 AM51 °FOvercast.No wind92%30.13 "Hg10 mi
1:54 AM50 °FOvercast.5 mph93%30.13 "Hg10 mi
12:54 AM53 °FOvercast.No wind86%30.14 "Hg10 mi
11:54 PM
Sun, Mar 29
53 °FOvercast.3 mph86%30.15 "Hg10 mi
10:54 PM54 °FMostly cloudy.No wind80%30.16 "Hg10 mi
9:54 PM55 °FOvercast.3 mph77%30.17 "Hg10 mi
8:54 PM56 °FMostly cloudy.No wind72%30.16 "Hg10 mi
7:54 PM57 °FPartly sunny.No wind67%30.16 "Hg10 mi
6:54 PM58 °FOvercast.3 mph65%30.17 "Hg10 mi
5:54 PM59 °FMostly cloudy.9 mph62%30.19 "Hg10 mi
4:54 PM61 °FMostly cloudy.12 mph56%30.19 "Hg10 mi
3:54 PM61 °FMostly cloudy.10 mph54%30.20 "Hg10 mi
2:54 PM61 °FOvercast.10 mph54%30.21 "Hg10 mi
1:54 PM60 °FMore clouds than sun.8 mph53%30.23 "Hg10 mi
12:54 PM59 °FMore clouds than sun.8 mph56%30.24 "Hg10 mi
11:54 AM58 °FOvercast.9 mph58%30.25 "Hg10 mi
Weather by CustomWeather, © 2015

See weather overviewHow to use our weather pages